Theta_e
311 313 313 314 313 311 312 313 314 315 315 314 316 316 317 316 315 316 316 316 315 315 316 317 317 317 318 322 327 327 328 328 333 335 339 341 342 341 337 336 336 328 328 328
312 313 313 311 311 312 313 314 315 315 315 314 316 316 316 316 316 315 316 316 316 315 316 316 316 316 317 318 324 327 327 328 330 331 331 340 340 342 336 332 332 331 332 333
313 313 312 312 313 313 314 314 315 315 315 314 315 316 316 315 314 314 315 315 314 315 314 314 314 315 315 316 320 324 328 332 332 335 337 335 342 339 335 335 337 338 336 335
312 312 312 312 313 313 314 314 315 315 315 315 314 315 316 315 316 316 315 315 316 315 314 314 314 315 315 315 316 317 322 325 333 335 339 339 337 340 338 337 339 340 336 331
314 312 312 313 314 313 314 313 314 314 315 314 315 315 316 315 315 316 316 315 315 314 314 314 316 315 316 316 316 317 317 318 323 332 335 339 342 341 340 338 337 333 330 330
314 311 312 314 312 313 313 313 313 312 313 316 316 316 316 316 316 317 316 315 314 314 315 315 315 315 315 316 316 316 317 317 318 322 331 338 340 339 335 338 335 331 332 331
315 315 314 312 314 315 313 314 316 317 317 318 317 317 317 316 316 317 316 315 316 316 315 315 315 316 316 316 316 317 317 317 317 319 323 332 339 339 337 336 333 331 331 330
316 317 314 313 314 316 315 315 316 318 318 317 315 317 317 315 315 314 315 316 315 316 316 317 317 318 319 319 318 318 317 317 316 320 323 326 336 337 334 331 324 322 321 321
314 314 314 315 315 314 316 315 315 316 316 317 317 317 317 317 317 316 317 316 316 316 316 316 316 317 318 319 319 319 318 317 317 320 325 326 323 319 315 314 313 314 314 314
316 317 316 315 314 313 315 315 318 318 319 321 319 318 318 318 317 317 317 316 314 315 316 316 316 316 317 317 318 318 321 319 322 323 324 319 316 315 315 315 316 315 314 314
314 315 316 316 316 317 316 316 317 318 319 322 322 320 318 317 316 317 317 314 313 314 316 316 316 315 316 316 316 316 319 322 322 323 318 316 316 316 315 316 315 315 314 314
314 316 318 317 316 314 315 316 318 323 323 321 322 320 316 316 316 315 314 313 313 315 316 316 315 315 314 315 315 317 315 316 318 319 318 318 317 317 316 317 316 316 315 314
314 316 318 317 316 315 316 317 317 317 317 321 322 319 315 315 315 313 314 313 313 315 316 315 314 314 314 314 314 316 317 316 316 316 315 317 318 318 316 315 316 318 316 315
312 315 316 317 317 316 318 316 316 317 320 318 317 317 315 314 314 314 314 314 314 315 314 313 313 312 311 313 312 313 315 317 317 315 316 316 316 316 317 317 318 318 318 317
311 315 314 313 313 312 312 312 312 312 314 317 315 314 313 313 314 315 314 313 313 314 312 312 311 311 310 309 310 311 311 310 312 315 315 315 316 316 316 316 316 316 317 318
312 313 312 312 310 310 310 310 310 311 312 314 313 312 312 313 312 313 313 312 311 312 312 311 309 308 307 307 308 308 309 309 310 310 310 311 313 315 315 315 315 316 316 316
310 311 311 311 309 310 312 311 311 311 311 313 314 314 314 314 314 313 311 310 310 310 311 309 308 307 306 306 304 306 306 306 307 308 309 309 310 311 313 314 315 315 315 316
310 310 310 311 310 314 313 314 314 314 315 315 315 315 314 312 310 310 309 309 309 311 309 308 307 306 305 305 305 305 305 305 305 305 306 306 307 308 310 310 311 312 313 314
308 309 310 312 313 312 312 314 314 313 313 313 314 313 311 308 307 309 308 308 308 308 307 307 306 305 304 304 305 305 305 305 305 305 305 305 305 305 306 307 309 310 310 312
308 309 311 312 314 314 312 313 312 312 314 309 308 308 308 306 307 308 307 306 305 306 306 305 304 304 304 304 304 304 304 304 304 304 304 304 303 303 304 305 305 307 308 309
310 311 312 313 315 313 312 311 311 315 314 308 307 307 306 307 306 305 305 305 306 304 303 303 303 304 304 303 302 302 301 302 303 303 303 303 302 302 303 303 304 305 306 307
314 313 313 313 313 313 308 309 311 310 307 306 306 305 306 306 306 305 305 304 303 303 303 302 302 302 302 302 301 301 301 300 300 300 300 301 302 302 302 302 303 304 304 305
313 313 313 314 313 310 308 308 306 306 306 306 306 305 305 304 305 304 303 303 302 302 300 299 301 301 300 299 300 299 299 298 299 299 300 300 300 300 300 301 302 304 305 305
310 309 311 311 309 308 307 306 306 305 305 305 304 304 304 304 304 304 303 302 301 300 299 298 298 298 299 298 297 298 297 298 299 297 298 298 299 300 301 301 301 302 303 303
309 309 310 310 308 307 306 306 304 304 304 303 303 304 303 303 303 303 302 301 300 299 298 298 298 298 297 297 297 297 297 298 297 297 298 298 299 299 300 300 300 301 302 303
308 310 310 310 307 307 307 305 304 303 303 303 303 303 303 303 303 303 302 301 300 299 297 298 298 298 296 295 295 296 296 296 296 297 297 298 298 299 300 300 301 301 302 303
Wind_Speed
2 5 8 9 5 2 1 4 8 10 10 6 11 11 12 12 10 12 11 7 11 13 9 11 13 17 29 33 37 37 38 34 36 37 38 38 38 40 42 42 42 36 37 38
3 11 10 4 5 5 5 6 9 10 11 6 10 12 10 10 12 13 12 11 13 13 12 12 15 13 14 33 42 43 44 42 41 39 37 38 37 40 41 41 37 36 38 36
9 3 5 10 6 6 6 7 5 7 4 4 7 11 10 8 10 13 16 16 16 14 20 19 18 15 14 13 23 44 45 43 43 40 40 39 38 39 38 36 35 36 35 34
8 7 10 8 9 11 11 13 12 9 6 11 2 10 11 9 11 10 14 14 15 19 17 19 22 21 22 18 15 17 36 43 44 42 43 43 44 43 39 39 39 37 37 33
3 5 8 9 15 10 9 4 5 7 9 5 10 7 12 6 11 14 15 19 15 15 19 23 23 23 20 23 23 22 21 29 46 50 47 46 45 42 41 37 38 35 34 29
12 2 4 6 3 9 3 7 3 2 5 12 15 12 8 11 12 14 12 11 13 16 16 22 26 27 29 28 27 28 28 27 29 46 51 48 47 45 42 38 37 34 33 31
9 15 10 9 12 12 7 9 7 7 8 13 9 13 14 10 13 16 12 14 15 16 17 19 20 21 25 27 27 29 32 32 32 34 47 50 49 48 41 37 32 30 29 29
7 9 7 7 13 11 8 8 9 10 8 9 1 8 6 7 11 8 5 11 13 13 13 14 16 18 20 21 24 27 30 35 36 35 41 45 42 38 35 31 29 27 24 24
4 5 2 6 11 8 12 9 8 13 6 7 9 12 9 9 6 3 7 11 15 15 17 16 17 19 21 22 24 27 28 29 30 34 41 39 34 29 25 24 21 18 18 17
3 9 5 4 2 4 7 5 4 5 8 15 8 7 7 7 7 3 7 11 21 19 18 16 15 14 14 18 22 20 21 19 18 26 33 29 24 22 21 20 16 12 10 12
5 4 10 6 6 13 7 6 3 4 3 7 12 7 3 1 1 6 6 16 18 22 21 18 17 14 16 13 16 15 16 13 11 23 25 26 23 22 23 21 14 12 10 12
4 4 8 13 9 4 5 8 4 7 5 4 6 9 1 2 3 7 19 19 22 15 19 18 16 13 12 13 15 9 14 11 6 12 18 24 25 24 26 26 21 20 16 13
3 3 4 4 5 4 8 7 1 3 2 7 7 6 6 6 16 19 18 24 20 12 11 11 11 10 9 10 11 9 10 11 15 12 10 18 23 24 25 24 23 29 23 19
4 5 11 12 7 2 3 7 6 5 4 12 13 21 20 16 14 17 18 15 14 10 7 9 12 13 12 9 11 13 8 18 21 26 21 20 18 19 27 32 34 36 33 29
4 5 9 13 15 14 15 18 17 19 19 18 21 22 20 19 12 11 12 13 16 10 8 10 12 13 15 15 14 11 12 9 5 17 26 25 33 25 20 24 32 40 39 39
11 4 6 12 12 17 20 19 19 19 19 19 20 23 15 6 8 10 11 13 16 17 13 12 14 17 18 18 18 20 20 18 16 14 13 16 21 30 31 21 21 23 32 37
7 7 6 12 7 6 10 13 14 10 10 10 12 9 5 9 9 13 17 20 22 23 17 17 20 22 23 24 27 27 26 27 25 25 25 24 22 22 22 23 25 27 24 25
9 9 5 5 4 5 4 2 3 4 7 8 10 10 8 8 15 22 25 27 23 14 16 23 28 28 27 26 25 26 26 26 25 25 27 28 28 27 27 26 27 26 26 28
14 8 3 3 4 7 1 3 1 2 5 5 7 8 11 17 25 22 14 13 14 23 29 33 29 28 30 29 27 28 28 27 27 27 26 26 28 30 30 32 32 32 31 30
7 8 5 3 3 3 3 5 3 1 8 3 4 8 13 19 12 16 25 28 33 30 30 33 34 34 32 28 27 30 33 33 32 31 29 27 27 29 31 34 36 37 38 37
5 3 7 6 5 3 2 2 2 5 3 5 10 16 20 16 19 33 33 35 32 33 34 39 39 35 31 32 33 35 36 35 33 32 31 32 33 33 31 32 32 34 37 37
3 4 3 3 3 4 1 1 3 7 15 14 19 20 24 27 30 31 31 34 35 36 35 42 38 34 36 38 38 42 39 35 36 40 43 36 31 30 29 31 31 31 32 36
2 2 1 5 2 1 2 7 10 10 16 19 22 26 26 28 27 29 32 36 39 34 39 42 41 43 37 37 36 40 42 40 40 32 33 31 34 38 41 32 30 29 31 34
2 3 3 3 3 2 10 6 9 16 19 23 24 26 26 29 31 34 37 37 38 38 40 39 42 37 41 36 42 35 40 31 32 38 33 35 34 32 30 33 32 33 36 38
3 2 3 5 2 11 2 13 18 21 21 25 27 27 30 31 35 36 40 42 40 35 44 40 38 41 40 40 34 32 31 30 34 36 37 36 37 37 37 37 38 39 40 38
3 2 2 2 7 8 18 20 23 23 27 27 29 31 30 34 37 39 42 42 38 41 44 42 38 39 40 36 35 33 30 31 33 36 37 36 36 36 36 38 41 41 42 41
Wind_Direction
59 216 218 222 210 167 209 261 275 277 278 303 283 282 279 282 290 288 292 278 295 297 302 300 290 267 238 235 240 242 240 238 236 234 233 233 233 230 230 233 235 224 232 236
195 241 233 202 197 219 233 267 271 284 278 205 276 272 269 272 278 276 285 273 274 274 279 287 303 302 280 242 236 237 234 235 234 235 236 234 234 230 228 229 229 229 228 232
224 195 172 194 203 225 231 223 233 259 314 236 278 272 261 249 247 259 265 280 285 278 295 298 292 287 294 294 259 239 237 238 235 236 234 234 231 226 222 223 226 227 227 236
246 231 222 209 230 214 246 214 242 259 264 277 231 285 264 257 250 252 264 262 263 286 296 303 302 291 287 281 269 263 246 245 245 243 237 236 233 228 226 230 227 226 231 233
206 178 186 209 233 189 261 186 252 263 264 266 247 259 276 223 247 253 257 262 268 280 289 295 298 290 283 290 284 271 260 250 242 241 242 239 232 234 234 232 231 223 228 232
257 244 253 249 175 198 285 277 269 195 252 253 258 248 262 256 258 275 266 262 279 292 298 298 296 296 295 289 289 286 274 266 252 243 239 236 233 234 239 237 232 230 238 242
242 245 245 228 261 250 239 272 276 253 230 259 280 262 263 259 255 267 293 303 307 311 313 310 304 300 297 293 287 280 276 271 261 248 237 236 234 234 236 238 237 230 228 233
258 265 209 188 215 257 229 243 255 268 260 274 218 255 264 251 274 266 341 341 334 327 331 330 323 316 313 311 302 291 282 276 263 250 236 231 228 229 228 228 225 223 226 229
211 244 276 263 273 247 258 233 271 261 260 262 251 256 264 247 252 352 352 0 353 343 329 326 328 328 326 322 313 299 288 276 258 247 228 222 218 216 218 216 213 214 220 226
285 279 253 284 241 179 227 154 210 213 269 269 248 267 259 263 266 326 335 350 344 331 320 324 320 334 348 342 330 332 317 277 257 250 225 214 212 213 216 211 210 214 219 228
328 252 247 316 252 269 244 228 229 284 238 265 280 263 122 255 266 315 342 327 330 328 321 313 320 311 306 334 359 349 329 310 253 219 208 208 207 209 200 209 207 213 218 226
352 293 256 257 269 288 256 274 258 231 230 248 285 272 8 351 352 339 320 320 318 323 326 323 318 316 313 317 308 328 35 1 297 244 227 224 226 215 212 213 212 224 220 217
295 225 263 251 241 253 257 253 213 21 47 217 257 263 164 311 324 323 322 316 312 307 329 342 350 359 344 347 332 310 270 297 329 340 298 258 253 250 229 232 229 234 231 226
126 256 245 261 293 318 288 273 249 220 240 274 253 278 286 299 312 317 325 335 330 323 333 346 354 355 359 357 357 1 311 251 277 304 295 296 303 270 252 250 249 247 240 234
222 248 256 265 265 267 265 258 259 250 254 256 276 283 291 298 305 306 309 322 333 312 328 342 345 341 343 347 334 335 337 342 309 254 279 288 278 281 278 261 254 245 245 242
161 260 253 267 268 266 267 262 258 256 257 258 270 276 299 290 287 295 307 319 315 303 300 316 324 325 322 321 318 317 310 306 303 294 278 261 255 249 259 265 268 259 249 245
209 240 256 276 282 296 264 264 242 241 245 255 262 290 309 297 300 313 310 305 299 296 285 303 315 316 315 314 313 305 302 301 296 290 285 281 277 271 266 256 252 257 255 253
229 221 225 277 288 246 57 49 100 231 254 238 266 277 300 312 305 299 298 293 292 292 297 309 312 308 309 306 303 301 299 298 294 288 286 283 278 275 272 268 261 259 258 256
214 198 201 236 232 306 195 195 197 340 289 331 297 310 309 319 315 299 322 316 300 301 301 301 300 297 300 298 294 293 294 293 290 287 285 281 279 277 273 268 266 263 263 259
151 180 207 167 244 265 112 119 44 148 264 74 342 316 318 322 300 297 309 300 297 297 301 300 298 297 294 293 293 294 294 290 283 282 280 278 278 274 272 270 268 265 262 260
146 180 212 232 252 263 87 352 288 257 28 313 302 302 303 296 287 295 300 299 298 299 301 305 299 294 288 291 292 289 292 284 280 280 279 276 279 273 270 269 265 262 259 256
191 178 195 205 237 260 70 241 290 333 300 289 299 304 301 297 298 299 300 298 296 298 304 304 291 290 289 289 289 289 285 284 281 284 285 278 269 264 266 268 264 257 254 252
228 272 300 216 295 116 240 276 285 293 292 295 298 303 303 295 290 296 299 302 301 294 304 306 290 290 290 290 286 285 283 285 285 275 279 268 268 271 273 264 260 259 252 246
178 218 257 278 154 278 302 290 274 306 299 303 299 300 301 298 297 296 300 300 294 295 307 302 298 285 293 288 292 280 288 283 276 279 278 275 273 270 264 261 258 256 250 246
298 266 259 260 295 323 220 307 315 309 303 306 306 305 302 298 293 296 301 302 292 294 309 300 295 289 289 294 289 287 282 279 277 275 279 277 273 270 267 263 259 253 252 247
222 263 252 321 334 294 302 314 312 309 312 311 309 308 304 297 292 296 296 298 290 300 306 298 297 291 294 292 291 288 284 283 281 277 275 272 270 269 267 267 268 267 264 260